JQ1YUX-13 Tokyo Ota-ku JP current weather conditions

sailwx.info

Wind from 171

Air temperature 21.7° C
Dewpoint 19.6° C

Last reported at 2014-Oct-26 08:22 UTC.
Time now 2014-Oct-26 09:37 UTC

Location: N 35°35' E 139°40'.
View on Google Maps.

See reports from other nearby stations

  
Tides and Currents Weather Stations Pressure Air Temp Water Temp Dewpoint Dewpoint Depression Visibility Wind Speed Wind Dir Waves Ship Positions
date/time (UTC)wind fromknots sea level pressurealtimeterstation pressurevisibilityair tempwater tempwave heightnotes
2014-Oct-26 08:22 171 21.7
2014-Oct-26 07:52 172 22.2
2014-Oct-26 07:22 171 22.2
2014-Oct-26 06:52 182 22.8
2014-Oct-26 06:22 180 0 gusting 4 22.8
2014-Oct-26 05:52 206 23.3
2014-Oct-26 05:22 223 23.3
2014-Oct-26 04:52 178 23.3
2014-Oct-26 04:22 167 23.3
2014-Oct-26 03:52 179 22.8
2014-Oct-26 03:22 176 2 gusting 3 22.8
2014-Oct-26 02:52 232 22.8
2014-Oct-26 02:22 313 21.7
2014-Oct-26 01:52 324 21.1
2014-Oct-26 01:22 326 21.7
2014-Oct-26 00:52 276 20.6
2014-Oct-26 00:22 337 0 20.0
2014-Oct-25 23:52 315 18.9
2014-Oct-25 23:22 336 17.8
2014-Oct-25 22:52 334 16.7
2014-Oct-25 22:22 336 16.1
2014-Oct-25 21:52 335 16.1
2014-Oct-25 21:22 334 16.1
2014-Oct-25 20:52 335 16.1
2014-Oct-25 20:22 335 16.1
2014-Oct-25 19:52 334 16.1
2014-Oct-25 19:22 335 16.7
2014-Oct-25 18:52 334 17.2
2014-Oct-25 18:22 334 17.2
2014-Oct-25 17:52 336 0 gusting 2 17.8
2014-Oct-25 17:22 349 17.8
2014-Oct-25 16:52 337 1 gusting 3 17.8
2014-Oct-25 16:22 277 17.2
2014-Oct-25 15:52 278 17.2
2014-Oct-25 15:22 277 17.8
2014-Oct-25 14:52 277 17.8
2014-Oct-25 14:22 275 0 gusting 1 18.3
2014-Oct-25 13:52 185 18.9
2014-Oct-25 13:22 184 18.9
2014-Oct-25 12:52 185 18.3
2014-Oct-25 12:22 184 18.3
2014-Oct-25 11:52 185 18.9
2014-Oct-25 11:22 185 18.9
2014-Oct-25 10:52 184 19.4
2014-Oct-25 10:22 185 19.4
2014-Oct-25 09:52 184 20.0
2014-Oct-25 09:22 185 20.0
2014-Oct-25 08:52 178 20.6
2014-Oct-25 08:22 171 20.6
2014-Oct-25 07:52 175 0 gusting 3 21.1
2014-Oct-25 07:22 173 1 gusting 4 21.7
2014-Oct-25 06:52 184 22.2
2014-Oct-25 06:22 196 3 gusting 6 22.8
2014-Oct-25 05:52 187 3 gusting 6 23.3
2014-Oct-25 05:22 181 1 gusting 7 23.3
2014-Oct-25 04:52 182 2 gusting 4 22.8
2014-Oct-25 04:22 200 1 gusting 3 22.8
2014-Oct-25 03:52 196 0 gusting 4 23.3
2014-Oct-25 03:22 194 0 gusting 4 22.2
2014-Oct-25 02:52 218 21.1
2014-Oct-25 02:22 217 20.6
2014-Oct-25 01:52 305 20.0
2014-Oct-25 01:22 315 20.0
2014-Oct-25 00:52 317 19.4
2014-Oct-25 00:22 315 18.3
2014-Oct-24 23:52 317 16.1
2014-Oct-24 23:22 315 14.4
2014-Oct-24 22:52 317 13.3
2014-Oct-24 22:22 317 12.2
2014-Oct-24 21:52 317 11.7
2014-Oct-24 21:22 317 11.7
2014-Oct-24 20:52 317 11.7
2014-Oct-24 20:22 317 11.7
2014-Oct-24 19:52 317 11.7
2014-Oct-24 19:22 316 12.2
2014-Oct-24 18:52 317 12.2
2014-Oct-24 18:22 317 12.2
2014-Oct-24 17:52 316 12.2
2014-Oct-24 17:22 315 12.8
2014-Oct-24 16:52 317 12.8
2014-Oct-24 16:22 316 13.3
2014-Oct-24 15:52 317 13.3
2014-Oct-24 15:22 317 13.3
2014-Oct-24 14:52 317 13.9
2014-Oct-24 13:52 317 14.4
2014-Oct-24 13:22 317 15.0
2014-Oct-24 12:52 317 15.0
2014-Oct-24 12:22 315 15.6
2014-Oct-24 11:52 317 16.1
2014-Oct-24 11:22 316 16.1
2014-Oct-24 10:52 315 16.7
2014-Oct-24 10:22 315 16.7
2014-Oct-24 09:52 316 17.2
2014-Oct-24 09:22 317 17.8